Regional Weather Roundup
Issued by NWS San Angelo, TX

Home | Current Version | Previous Version | Text Only | Print | Product List | Glossary On
Versions: 1 2 3 4 5 6 7 8 9 10 11 12 13 14 15 16 17 18 19 20 21 22 23 24 25 26 27 28 29 30 31 32 33 34 35 36 37 38 39 40 41 42 43 44 45 46 47 48 49 50
000
ASUS44 KSJT 230810
RWRSJT
WEST CENTRAL TEXAS REGIONAL WEATHER ROUNDUP
NATIONAL WEATHER SERVICE SAN ANGELO TX
300 AM CDT WED APR 23 2014

NOTE: "FAIR" INDICATES FEW OR NO CLOUDS BELOW 12,000 FEET WITH NO
SIGNIFICANT WEATHER AND/OR OBSTRUCTIONS TO VISIBILITY.

TXZ049-054-064>066-071>073-076>078-098-099-113-114-127-128-139-140-
154-155-168>170-230900
...LOCATIONS ACROSS WEST CENTRAL TEXAS...

CITY           SKY/WX    TMP DP  RH WIND       PRES   REMARKS
SAN ANGELO     CLEAR     67  51  56 SE7       29.91F
ABILENE        CLEAR     65  51  60 S13       29.91F
DYESS AFB      CLEAR     65  51  60 SE15      29.91F
JUNCTION       CLEAR     64  54  69 E3        29.94F
SWEETWATER     CLEAR     67  46  47 SE18G24   29.94F
BROWNWOOD      CLEAR     55  50  82 CALM      29.95S
COLEMAN        SUNNY     61  53  74 S6        29.94F
SONORA         CLEAR     68  52  56 SE8       29.94R
OZONA          FAIR      64  48  55 S3        29.94F
BRADY          CLEAR     61  52  72 SE3       29.94F
$$

TEXAS PANHANDLE/OKLAHOMA PANHANDLE

CITY           SKY/WX    TMP DP  RH WIND       PRES   REMARKS
AMARILLO       CLEAR     64  39  39 S23G33    29.88F
BORGER         CLEAR     65  43  44 S23G32    29.83F
CANADIAN       CLEAR     64  52  64 S24G30    29.82F
DALHART        PTCLDY    63  35  35 S20       29.86F
DUMAS          MOSUNNY   63  37  38 S21G28    29.85F
GUYMON         NOT AVBL
HEREFORD       SUNNY     60  37  42 S17       29.89F
PAMPA          SUNNY     60  46  60 S23G29    29.87F
PERRYTON       CLEAR     63  49  60 S20G26    29.82F
$$

SOUTHERN PANHANDLE/SOUTH PLAINS/ROLLING PLAINS

CITY           SKY/WX    TMP DP  RH WIND       PRES   REMARKS
LUBBOCK        CLEAR     63  42  46 S15       29.90F
SNYDER         CLEAR     67  48  50 SE16      29.91S
CHILDRESS      CLEAR     63  47  55 S14       29.88F
SEMINOLE       SUNNY     64  44  47 S10       29.90F
$$

PERMIAN BASIN

CITY           SKY/WX    TMP DP  RH WIND       PRES   REMARKS
MIDLAND        CLEAR     68  49  50 SE17      29.89F
ODESSA           N/A    N/A N/A N/A MISG      29.89F
WINK           CLEAR     70  46  42 SE12      29.84F
$$

FAR WEST/SOUTHWEST MOUNTAINS/TRANS PECOS

CITY           SKY/WX    TMP DP  RH WIND       PRES   REMARKS
ALPINE         SUNNY     66  47  49 S6        30.02S
DRYDEN           N/A     76  52  43 E14       29.88F
EL PASO        CLOUDY    76  25  15 SW9       29.84F
FORT STOCKTON  PTCLDY    72  50  45 SE21G31   29.86F
GUADALUPE PASS CLOUDY    65  41  41 SW16      29.99S
MARFA          PTCLDY    61  45  55 SE5       30.00F
PECOS          MOSUNNY   61  52  73 E7        29.84S
$$

DALLAS/FORT WORTH METROPLEX

CITY           SKY/WX    TMP DP  RH WIND       PRES   REMARKS
DFW AIRPORT    CLEAR     67  56  67 CALM      29.92F
FTW MEACHAM    CLEAR     64  57  78 CALM      29.92F
DAL-EXECUTIVE  CLEAR     61  57  87 CALM      29.92F
GRAND PRAIRIE  CLEAR     64  55  72 CALM      29.95F
ADDISON        CLEAR     66  55  67 CALM      29.94F
MESQUITE       SUNNY     58  56  92 CALM      29.93F
LANCASTER      SUNNY     58  56  91 CALM      29.94F
$$

NORTH CENTRAL TEXAS

CITY           SKY/WX    TMP DP  RH WIND       PRES   REMARKS
SHRMAN/DENISON SUNNY     64  46  50 E6        29.94F
GAINESVILLE    CLEAR     58  51  79 CALM      29.95S
BRIDGEPORT     SUNNY     56  55  97 CALM      29.94F
DENTON         CLEAR     57  55  93 CALM      29.93F
WAXAHACHIE     SUNNY     60  57  91 CALM      29.94F
GRANBURY       SUNNY     61  56  85 CALM      29.95S
$$

WESTERN NORTH TEXAS

CITY           SKY/WX    TMP DP  RH WIND       PRES   REMARKS
WICHITA FALLS  CLEAR     60  54  80 S10       29.89F
VERNON         SUNNY     62  54  73 SE9       29.90F
BRECKENRIDGE   SUNNY     64  53  67 SE9       29.92F
COMANCHE       CLEAR     61  55  78 SE6       29.94F
$$

CENTRAL AND SOUTH CENTRAL TEXAS

CITY           SKY/WX    TMP DP  RH WIND       PRES   REMARKS
AUSTIN/BERGSTM CLEAR     58  56  93 CALM      29.93F
WACO           CLEAR     60  56  86 CALM      29.93F
HILLSBORO      SUNNY     65  55  69 E8        29.93F
TEMPLE         CLEAR     63  54  72 CALM      29.97S
KILLEEN-GRAY   CLEAR     66  57  72 E7        29.93F
FORT HOOD      NOT AVBL
GEORGETOWN     CLEAR     57  54  88 CALM      29.94F
LAGO VISTA     FAIR      67  57  69 E5        29.95F
SAN MARCOS     CLEAR     59  46  63 CALM      29.95F
NEW BRAUNFELS  CLEAR     63  57  81 CALM      29.92F
RANDOLPH AFB   CLEAR     62  58  84 CALM      29.93F
SAN ANTONIO    CLEAR     69  61  75 CALM      29.93F
STINSON        CLEAR     66  60  81 CALM      29.91F
PLEASANTON     NOT AVBL
LA GRANGE      CLEAR     68  66  93 CALM      29.91F
GIDDINGS       SUNNY     60  57  89 CALM      29.97F
$$

EAST TEXAS

CITY           SKY/WX    TMP DP  RH WIND       PRES   REMARKS
PARIS          CLEAR     57  48  72 E7        29.94S
CLARKSVILLE    SUNNY     60  50  69 CALM      29.93F
TYLER          CLEAR     62  57  83 CALM      29.93F
LONGVIEW       CLEAR     60  57  89 CALM      29.93F
PALESTINE      SUNNY     57  54  88 CALM      29.95F
NACOGDOCHES    CLEAR     55  52  88 CALM      29.94F
$$

TEXAS HILL COUNTRY AND EDWARDS PLATEAU

CITY           SKY/WX    TMP DP  RH WIND       PRES   REMARKS
LLANO          SUNNY     61  55  82 CALM      29.96F
HORSESHOE BAY  FAIR      63  54  72 S5        29.93F
KERRVILLE      CLEAR     59  55  88 CALM      29.95F
FREDERICKSBRG  CLEAR     57  53  89 CALM      29.95F
ROCKSPRINGS    SUNNY     66  57  72 SE8       29.96F
HONDO          PTCLDY    70  61  73 E6        29.93F
UVALDE         MOSUNNY   71  63  75 E7        29.90F
DEL RIO        CLEAR     74  55  51 E9        29.86F
$$

SOUTHEAST TEXAS

CITY           SKY/WX    TMP DP  RH WIND       PRES   REMARKS
COLLEGE STN    CLEAR     65  59  81 CALM      29.93F
CALDWELL       SUNNY     61  61 100 CALM      29.96F
CROCKETT       SUNNY     61  61 100 CALM      29.97S FOG
BRENHAM        CLEAR     61  59  93 CALM      29.94S
HUNTSVILLE     CLEAR     70  59  68 CALM      29.94S
CONROE         CLEAR     57  57 100 CALM      29.94F
HOUSTON BUSH   CLEAR     66  65  96 CALM      29.93F
HOUSTON HOBBY  FOG       66  66 100 CALM      29.93F VSB 1
PERLAND        FOG       67  66  97 CALM      29.95F VSB 1/4
WHARTON        SUNNY     65  64  97 CALM      29.93F FOG
$$

THE UPPER TEXAS COAST

CITY           SKY/WX    TMP DP  RH WIND       PRES   REMARKS
ORANGE         FOG       62  62 100 CALM      29.95S VSB 1/2
PORT ARTHUR    FOG       65  64  97 CALM      29.93F VSB<1/4
GALVESTON      CLEAR     69  69 100 SW3       29.94F
ANGLETON       FOG       63  63 100 CALM      29.93F VSB 1/4
BAY CITY       FOG       63  63  99 CALM      29.93F VSB 1/4
$$

TEXAS COASTAL BEND, RIO GRANDE PLAINS DEEP SOUTH TEXAS

CITY           SKY/WX    TMP DP  RH WIND       PRES   REMARKS
VICTORIA       PTCLDY    65  64  97 S5        29.93F FOG
BEEVILLE       FAIR      67  67 100 SE5       29.91F
ROCKPORT       CLEAR     70  68  93 S3        29.92F
PORT ARANSAS   SUNNY     69  69 100 S3        29.92F
PORT LAVACA    FOG       65  65  97 S3        29.92F VSB 1
CORPUS CHRISTI PTCLDY    69  66  90 SE7       29.91F
KINGSVILLE NAS CLEAR     66  64  93 SE6       29.91F
COTULLA        CLEAR     72  63  73 SE8       29.89F
LAREDO         CLEAR     75  68  79 SE13      29.91F
BROWNSVILLE    CLEAR     68  67  96 S7        29.92F
PORT ISABEL    NOT AVBL
HEBBRONVILLE   SUNNY     68  65  89 CALM      29.91F
MCALLEN        MOCLDY    71  69  93 S7        29.90F
WESLACO        PTCLDY    68  65  90 S7        29.91S
FALFURRIAS     SUNNY     69  65  88 SE5       29.90F
EDINBURG       PTSUNNY   70  66  88 S3        29.90F
$$



USA.gov is the U.S. government's official web portal to all federal, state and local government web resources and services.